Paganella, Italy

7:53 AM CEST on June 28, 2017 (GMT +0200)
Paganella

Weather History for LIVP - August, 2014

Change the Weather History Date:

Monday, August 11, 2014

  Actual Average Record
Temperature  
Mean Temperature 54 °F -  
Max Temperature 57 °F 54 °F 71 °F (1998)
Min Temperature 51 °F 42 °F 33 °F (2016)
Degree Days  
Heating Degree Days 11    
Growing Degree Days 4 (Base 50)    
Moisture  
Dew Point 52 °F    
Average Humidity 96    
Maximum Humidity 100    
Minimum Humidity 76    
Precipitation  
Precipitation 0.00 in 0.12 in - ()
Sea Level Pressure  
Sea Level Pressure 30.15 in    
Wind  
Wind Speed 16 mph ()    
Max Wind Speed 26 mph    
Max Gust Speed 37 mph    
Visibility 1.0 miles    
Events Fog    
Averages and records for this station are not official NWS values.
T = Trace of Precipitation, MM = Missing Value Source: Averaged Metar Reports

Daily Weather History Graph

Daily Weather History Graph

Search for Another Location

Airport or City:

Trip Planner

Search our weather history database for the weather conditions in past years. The results will help you decide how hot, cold, wet, or windy it might be!

Date:

Astronomy

Aug. 11, 2014 Rise Set
Actual Time 6:09 AM CEST 8:31 PM CEST
Civil Twilight 5:36 AM CEST 9:04 PM CEST
Nautical Twilight 4:54 AM CEST 9:46 PM CEST
Astronomical Twilight 4:07 AM CEST 10:32 PM CEST
Moon 8:40 PM CEST (8/11) 6:59 AM CEST (8/11)
Length of Visible Light 15h 28m
Length of Day
14h 21m
Full, 99% of the Moon is Illuminated
Aug 11
Full
Aug 17
Last Quarter
Aug 25
New
Sep 2
First Quarter
Sep 9
Full

Hourly Weather History & Observations

Time (CEST) Temp. Dew Point Humidity Pressure Visibility Wind Dir Wind Speed Gust Speed Precip Events Conditions
12:00 AM 52 °F 52 °F 99%  in 0 mi SW 16.1 mph - - Fog Heavy Fog
12:55 AM 51.8 °F 51.8 °F 100% 30.21 in 0.1 mi SW 16.1 mph - N/A Fog Fog
1:55 AM 51.8 °F 51.8 °F 100% 30.18 in 0.1 mi SSW 18.4 mph - N/A Fog Fog
2:00 AM 52 °F 52 °F 99%  in 0 mi SSW 18.4 mph - - Fog Heavy Fog
2:55 AM 53.6 °F 53.6 °F 100% 30.18 in 0.0 mi SSW 15.0 mph - N/A Fog Fog
3:00 AM 53 °F 53 °F 99%  in 0 mi SSW 15.0 mph - - Fog Heavy Fog
3:55 AM 53.6 °F 53.6 °F 100% 30.18 in 0.0 mi SSW 16.1 mph 29.9 mph N/A Fog Fog
4:00 AM 53 °F 53 °F 99%  in 0 mi SSW 16.1 mph - - Fog Heavy Fog
4:55 AM 51.8 °F 51.8 °F 100% 30.15 in 0.0 mi SSW 16.1 mph - N/A Fog Fog
5:00 AM 53 °F 53 °F 98%  in 0 mi SSW 16.1 mph - - Fog Heavy Fog
5:55 AM 51.8 °F 51.8 °F 100% 30.15 in 0.0 mi SW 18.4 mph - N/A Fog Fog
6:00 AM 52 °F 52 °F 99%  in 0 mi SW 18.4 mph - - Fog Heavy Fog
6:55 AM 51.8 °F 51.8 °F 100% 30.15 in 0.0 mi SSW 17.3 mph - N/A Fog Fog
7:00 AM 52 °F 52 °F 99%  in 0 mi SSW 17.3 mph - - Fog Heavy Fog
7:55 AM 51.8 °F 51.8 °F 100% 30.15 in 0.0 mi SSW 18.4 mph - N/A Fog Fog
8:00 AM 52 °F 52 °F 99%  in 0 mi SSW 18.4 mph - - Fog Heavy Fog
8:55 AM 51.8 °F 51.8 °F 100% 30.15 in 0.0 mi SW 17.3 mph - N/A Fog Fog
9:00 AM 52 °F 52 °F 99%  in 0 mi SW 17.3 mph - - Fog Heavy Fog
9:55 AM 51.8 °F 51.8 °F 100% 30.15 in 0.1 mi SW 13.8 mph - N/A Fog Fog
10:00 AM 52 °F 52 °F 100%  in 0 mi SW 13.8 mph - - Fog Heavy Fog
10:55 AM 53.6 °F 53.6 °F 100% 30.18 in 0.1 mi SSW 13.8 mph - N/A Fog Fog
11:00 AM 54 °F 54 °F 98%  in 0 mi SSW 13.8 mph - - Fog Heavy Fog
11:55 AM 55.4 °F 53.6 °F 94% 30.18 in 0.1 mi SSW 13.8 mph - N/A Fog Fog
12:00 PM 55 °F 54 °F 94%  in 0 mi SSW 13.8 mph - - Fog Heavy Fog
12:55 PM 55.4 °F 51.8 °F 88% 30.18 in 6.2 mi SSW 16.1 mph - N/A   Scattered Clouds
1:00 PM 56 °F 51 °F 80%  in 9 mi SSW 16.1 mph - - Fog Light Fog
1:55 PM 55.4 °F 51.8 °F 88% 30.15 in 0.6 mi SSW 20.7 mph - N/A Fog Fog
2:00 PM 56 °F 52 °F 80%  in 1 mi SSW 20.7 mph - - Fog Heavy Fog
2:55 PM 57.2 °F 50.0 °F 77% 30.15 in 6.2 mi SSW 24.2 mph - N/A   Scattered Clouds
3:00 PM 56 °F 51 °F 76%  in 9 mi SSW 24.2 mph - - Fog Light Fog
3:55 PM 55.4 °F 50.0 °F 82% 30.12 in 6.2 mi SSW 26.5 mph - N/A   Scattered Clouds
4:00 PM 55 °F 51 °F 81%  in 7 mi SSW 26.5 mph - -   Mostly Cloudy
4:55 PM 53.6 °F 51.8 °F 94% 30.12 in 0.0 mi SSW 25.3 mph 36.8 mph N/A Fog Fog
5:00 PM 54 °F 53 °F 93%  in 0 mi SSW 25.3 mph - - Fog Heavy Fog
5:55 PM 55.4 °F 53.6 °F 94% 30.12 in 0.0 mi SSW 20.7 mph 32.2 mph N/A Fog Fog
6:00 PM 55 °F 54 °F 93%  in 0 mi SSW 20.7 mph - - Fog Heavy Fog
6:55 PM 53.6 °F 53.6 °F 100% 30.12 in 0.0 mi SSW 20.7 mph 34.5 mph N/A Fog Fog
7:00 PM 54 °F 54 °F 98%  in 0 mi SSW 20.7 mph - - Fog Heavy Fog
7:55 PM 53.6 °F 53.6 °F 100% 30.12 in 0.0 mi SSW 23.0 mph 34.5 mph N/A Fog Fog
8:00 PM 53 °F 53 °F 99%  in 0 mi SSW 23.0 mph - - Fog Heavy Fog
8:55 PM 53.6 °F 53.6 °F 100% 30.12 in 0.0 mi SW 20.7 mph 35.7 mph N/A Fog Fog
9:00 PM 53 °F 53 °F 99%  in 0 mi SW 20.7 mph - - Fog Heavy Fog
9:55 PM 51.8 °F 51.8 °F 100% 30.12 in 0.0 mi SW 18.4 mph 29.9 mph N/A Fog Fog
10:00 PM 52 °F 52 °F 99%  in 0 mi SW 18.4 mph - - Fog Heavy Fog
10:55 PM 51.8 °F 51.8 °F 100% 30.15 in 0.0 mi SW 17.3 mph - N/A Fog Fog
11:00 PM 52 °F 52 °F 98%  in 0 mi SW 17.3 mph - - Fog Heavy Fog
11:55 PM 51.8 °F 51.8 °F 100% 30.15 in 0.0 mi SSW 13.8 mph 26.5 mph N/A Fog Fog